Terminal Aerodrome Forecast
Issued by NWS

Current Version | Previous Version | Graphics & Text | Print | Product List | Glossary On
Versions: 1 2 3 4 5 6 7 8 9 10 11 12 13 14 15 16
000
FTUS41 KILN 192300
TAFLUK
TAF
KLUK 192320Z 2000/2024 VRB03KT P6SM OVC025
     FM200800 00000KT 4SM BR BKN022
     FM201500 VRB03KT P6SM BKN028=

USA.gov is the U.S. government's official web portal to all federal, state and local government web resources and services.